Overview Statistics Trail Chart Weather Telemetry Raw packets
 

This is the latest recevied weather packets stored in our database for station/object IW1CBG-3. If no packets are shown the sender has not sent any weather packets the latest 10 day(s).

<< 13 14 15 16 17 18 19 >>
Time Temp. Humidity Pressure Rain* Wind** Luminosity Snow
1788468979 18.33° C 91% 1031.6 hPa 0 mm - - -
1788468377 18.33° C 92% 1031.5 hPa 0 mm - - -
1788467777 18.33° C 92% 1031.5 hPa 0 mm - - -
1788467178 18.89° C 93% 1031.1 hPa 0 mm - - -
1788466577 18.89° C 92% 1030.9 hPa 0 mm - - -
1788465978 19.44° C 93% 1031 hPa 0 mm - - -
1788465378 19.44° C 93% 1031.1 hPa 0 mm - - -
1788464777 19.44° C 92% 1030.8 hPa 0 mm - - -
1788464177 20° C 91% 1030.8 hPa 0 mm - - -
1788463577 20.56° C 89% 1030.5 hPa 0 mm - - -
1788462977 20.56° C 89% 1030.6 hPa 0 mm - - -
1788462378 20.56° C 90% 1030.7 hPa 0 mm - - -
1788461777 20.56° C 90% 1030.5 hPa 0 mm - - -
1788461177 21.11° C 90% 1030.2 hPa 0 mm - - -
1788460577 21.67° C 88% 1029.8 hPa 0 mm - - -
1788459977 21.67° C 87% 1029.5 hPa 0 mm - - -
1788459391 21.67° C 87% 1029.3 hPa 0 mm - - -
1788458777 22.22° C 87% 1029.2 hPa 0 mm - - -
1788458177 22.78° C 86% 1029.1 hPa 0 mm - - -
1788457576 22.78° C 85% 1028.7 hPa 0 mm - - -
1788456976 23.33° C 84% 1028.5 hPa 0 mm - - -
1788456406 23.33° C 82% 1028.6 hPa 0 mm - - -
1788455776 23.33° C 83% 1028.5 hPa 0 mm - - -
1788455177 24.44° C 81% 1028.3 hPa 0 mm - - -
1788454577 26.11° C 75% 1027.8 hPa 0 mm - - -

* Rain latest hour (hover to see other rain measurements)
** Current wind speed in m/s (hover to see current wind gust speed)